Total_Precipitation_Accumulation
0.00 0.01 0.02 0.03 0.05 0.06 0.05 0.06 0.10 0.08 0.08 0.04 0.01 0.01 0.01 0.00 0.00 0.00 0.00 0.01 0.01 0.01 0.01 0.01 0.01 0.01 0.01 0.01 0.02 0.02 0.04 0.09 0.09 0.07 0.06 0.06 0.08 0.10 0.12 0.13 0.13 0.17 0.22 0.27
0.00 0.02 0.01 0.03 0.06 0.05 0.02 0.02 0.02 0.02 0.03 0.01 0.02 0.02 0.02 0.02 0.02 0.02 0.02 0.02 0.02 0.02 0.02 0.01 0.01 0.02 0.01 0.02 0.02 0.04 0.08 0.14 0.17 0.14 0.08 0.06 0.06 0.07 0.10 0.10 0.12 0.18 0.21 0.24
0.01 0.02 0.02 0.08 0.07 0.03 0.01 0.02 0.03 0.04 0.05 0.04 0.05 0.05 0.07 0.07 0.06 0.05 0.04 0.03 0.02 0.01 0.01 0.01 0.01 0.01 0.02 0.02 0.03 0.10 0.13 0.11 0.18 0.20 0.10 0.06 0.07 0.09 0.12 0.13 0.17 0.21 0.24 0.25
0.01 0.01 0.07 0.08 0.02 0.01 0.01 0.02 0.03 0.05 0.06 0.08 0.09 0.09 0.09 0.10 0.08 0.04 0.02 0.01 0.00 0.00 0.00 0.00 0.00 0.01 0.02 0.05 0.05 0.13 0.16 0.12 0.19 0.21 0.13 0.13 0.15 0.17 0.19 0.22 0.26 0.30 0.31 0.31
0.00 0.01 0.05 0.04 0.02 0.03 0.04 0.05 0.06 0.08 0.11 0.11 0.09 0.06 0.04 0.03 0.02 0.01 0.00 0.00 0.00 0.00 0.00 0.00 0.01 0.01 0.03 0.08 0.11 0.12 0.15 0.14 0.21 0.27 0.24 0.24 0.25 0.28 0.32 0.36 0.38 0.38 0.39 0.39
0.01 0.01 0.04 0.05 0.04 0.06 0.07 0.14 0.12 0.09 0.07 0.04 0.02 0.03 0.01 0.00 0.00 0.00 0.00 0.00 0.00 0.00 0.00 0.01 0.02 0.04 0.05 0.08 0.13 0.15 0.16 0.18 0.24 0.37 0.42 0.39 0.39 0.41 0.43 0.50 0.53 0.53 0.50 0.47
0.02 0.04 0.06 0.03 0.04 0.05 0.12 0.15 0.05 0.02 0.02 0.02 0.02 0.03 0.01 0.00 0.01 0.01 0.00 0.00 0.01 0.01 0.01 0.03 0.05 0.08 0.12 0.13 0.16 0.18 0.20 0.24 0.30 0.43 0.57 0.56 0.55 0.55 0.57 0.59 0.65 0.70 0.70 0.66
0.03 0.08 0.12 0.02 0.02 0.05 0.06 0.04 0.02 0.02 0.02 0.02 0.02 0.01 0.01 0.01 0.01 0.01 0.01 0.01 0.02 0.03 0.05 0.06 0.10 0.17 0.22 0.23 0.23 0.26 0.28 0.31 0.37 0.50 0.55 0.58 0.66 0.71 0.79 0.81 0.82 0.84 0.86 0.81
0.04 0.07 0.03 0.00 0.01 0.02 0.02 0.02 0.02 0.02 0.02 0.02 0.02 0.02 0.02 0.03 0.02 0.02 0.01 0.02 0.03 0.05 0.08 0.12 0.17 0.27 0.36 0.37 0.38 0.39 0.38 0.39 0.44 0.52 0.65 0.79 0.84 0.81 0.86 0.94 0.98 1.00 0.99 0.94
0.03 0.02 0.01 0.01 0.01 0.02 0.01 0.02 0.02 0.01 0.01 0.01 0.03 0.04 0.05 0.05 0.04 0.03 0.03 0.03 0.04 0.07 0.12 0.17 0.25 0.37 0.46 0.49 0.51 0.50 0.45 0.43 0.47 0.57 0.67 0.80 0.95 0.98 1.03 1.05 1.06 1.10 1.11 1.02
0.02 0.01 0.00 0.01 0.01 0.01 0.01 0.01 0.01 0.00 0.01 0.02 0.04 0.05 0.06 0.06 0.06 0.05 0.04 0.04 0.06 0.11 0.16 0.20 0.30 0.45 0.53 0.57 0.60 0.58 0.52 0.47 0.48 0.55 0.64 0.73 0.86 0.96 1.00 1.02 0.96 0.99 1.03 0.99
0.01 0.00 0.00 0.01 0.00 0.00 0.00 0.01 0.01 0.01 0.01 0.02 0.03 0.04 0.04 0.05 0.04 0.04 0.04 0.07 0.11 0.15 0.21 0.25 0.31 0.42 0.51 0.65 0.77 0.79 0.70 0.60 0.54 0.53 0.61 0.68 0.78 0.81 0.73 0.72 0.70 0.69 0.73 0.69
0.00 0.00 0.00 0.00 0.00 0.00 0.00 0.00 0.00 0.00 0.00 0.01 0.02 0.02 0.01 0.01 0.02 0.04 0.09 0.15 0.20 0.24 0.28 0.34 0.40 0.47 0.54 0.70 0.88 0.99 0.92 0.77 0.65 0.59 0.59 0.64 0.73 0.81 0.84 0.73 0.66 0.59 0.57 0.50
0.00 0.00 0.00 0.00 0.00 0.00 0.00 0.00 0.00 0.00 0.00 0.00 0.00 0.00 0.01 0.01 0.03 0.09 0.17 0.24 0.28 0.33 0.38 0.45 0.51 0.56 0.63 0.75 0.90 0.99 0.99 0.88 0.73 0.69 0.68 0.65 0.69 0.77 0.85 0.92 0.87 0.70 0.55 0.46
0.00 0.00 0.00 0.00 0.00 0.00 0.00 0.00 0.00 0.00 0.00 0.00 0.00 0.00 0.01 0.04 0.09 0.16 0.25 0.34 0.44 0.48 0.47 0.50 0.56 0.60 0.68 0.81 0.90 0.93 0.93 0.87 0.77 0.74 0.74 0.68 0.63 0.70 0.77 0.83 0.90 0.86 0.69 0.53
0.00 0.00 0.00 0.00 0.00 0.00 0.00 0.00 0.00 0.00 0.00 0.00 0.00 0.01 0.03 0.07 0.13 0.21 0.31 0.47 0.65 0.66 0.58 0.57 0.59 0.61 0.69 0.85 0.92 0.85 0.77 0.63 0.61 0.67 0.69 0.66 0.65 0.68 0.76 0.82 0.86 0.83 0.72 0.58
0.00 0.00 0.00 0.00 0.00 0.00 0.00 0.00 0.00 0.00 0.00 0.01 0.02 0.04 0.07 0.13 0.23 0.36 0.47 0.54 0.63 0.63 0.60 0.57 0.52 0.53 0.66 0.80 0.88 0.80 0.67 0.53 0.42 0.48 0.59 0.63 0.67 0.72 0.80 0.84 0.85 0.77 0.63 0.49
0.00 0.00 0.00 0.00 0.00 0.00 0.00 0.00 0.00 0.00 0.02 0.04 0.07 0.10 0.16 0.27 0.48 0.67 0.72 0.70 0.66 0.56 0.50 0.47 0.43 0.47 0.59 0.67 0.77 0.75 0.63 0.52 0.44 0.45 0.51 0.55 0.65 0.76 0.81 0.78 0.72 0.64 0.54 0.43
0.00 0.00 0.00 0.00 0.00 0.00 0.00 0.00 0.00 0.02 0.05 0.10 0.16 0.20 0.25 0.36 0.58 0.78 0.81 0.88 0.86 0.70 0.51 0.42 0.41 0.44 0.54 0.60 0.68 0.71 0.57 0.44 0.35 0.35 0.39 0.41 0.53 0.68 0.71 0.63 0.53 0.47 0.45 0.40
0.00 0.00 0.00 0.00 0.00 0.00 0.00 0.01 0.03 0.07 0.13 0.22 0.28 0.33 0.39 0.45 0.62 0.82 0.88 0.90 0.86 0.70 0.50 0.41 0.39 0.39 0.44 0.57 0.66 0.64 0.51 0.37 0.26 0.23 0.27 0.35 0.48 0.60 0.58 0.47 0.39 0.36 0.35 0.34
0.00 0.00 0.00 0.00 0.00 0.00 0.01 0.03 0.08 0.17 0.27 0.31 0.35 0.42 0.48 0.53 0.62 0.80 1.01 1.02 0.78 0.56 0.42 0.39 0.38 0.36 0.42 0.57 0.61 0.57 0.48 0.38 0.28 0.23 0.25 0.35 0.48 0.53 0.43 0.32 0.27 0.27 0.26 0.26
0.00 0.00 0.00 0.00 0.01 0.01 0.03 0.06 0.14 0.26 0.39 0.40 0.38 0.41 0.50 0.60 0.67 0.72 0.81 0.95 0.83 0.62 0.43 0.36 0.36 0.38 0.44 0.55 0.55 0.48 0.43 0.38 0.31 0.26 0.28 0.35 0.43 0.42 0.33 0.24 0.22 0.23 0.23 0.22
0.00 0.00 0.01 0.01 0.02 0.03 0.05 0.09 0.16 0.31 0.47 0.49 0.46 0.45 0.53 0.62 0.72 0.88 0.85 0.76 0.76 0.67 0.47 0.34 0.31 0.37 0.43 0.50 0.50 0.42 0.41 0.37 0.30 0.26 0.25 0.28 0.31 0.29 0.24 0.18 0.16 0.16 0.18 0.18
0.00 0.01 0.01 0.02 0.04 0.06 0.10 0.15 0.20 0.30 0.42 0.42 0.35 0.33 0.43 0.57 0.60 0.62 0.71 0.75 0.70 0.65 0.49 0.35 0.26 0.30 0.38 0.40 0.41 0.41 0.41 0.33 0.26 0.22 0.21 0.21 0.23 0.23 0.21 0.19 0.17 0.16 0.16 0.15
0.01 0.01 0.02 0.04 0.09 0.15 0.19 0.25 0.32 0.38 0.47 0.41 0.30 0.23 0.28 0.43 0.56 0.52 0.53 0.57 0.58 0.54 0.43 0.35 0.30 0.32 0.33 0.37 0.39 0.39 0.35 0.25 0.19 0.17 0.18 0.21 0.20 0.19 0.20 0.19 0.16 0.15 0.15 0.15
0.01 0.02 0.03 0.07 0.12 0.17 0.22 0.33 0.41 0.50 0.62 0.58 0.40 0.24 0.21 0.27 0.34 0.38 0.42 0.47 0.50 0.52 0.39 0.29 0.28 0.32 0.35 0.37 0.36 0.33 0.28 0.23 0.20 0.19 0.19 0.21 0.20 0.18 0.18 0.18 0.16 0.16 0.15 0.15
0.02 0.02 0.05 0.10 0.16 0.18 0.20 0.27 0.37 0.55 0.73 0.73 0.50 0.26 0.20 0.22 0.27 0.31 0.36 0.43 0.49 0.50 0.40 0.28 0.24 0.26 0.29 0.30 0.29 0.25 0.20 0.17 0.17 0.16 0.15 0.15 0.15 0.16 0.13 0.12 0.13 0.14 0.13 0.13